Location: Ellerstadt
(49.4644°N, 8.2615°E)
Time: 11:45:38
(UTC+00:00)

USA 234 - Pass Details

Date: 03 March 2021
Orbit: 1102 x 1105 km, 123.0° (Epoch: 13 April)

Event Time Altitude Azimuth Distance (km) Brightness Sun altitude
Exits shadow 19:39:57 37° 65° (ENE) 1,652 3.8 -24.3°
Maximum altitude 19:42:48 76° 144° (SE) 1,137 3.1 -24.8°
Drops below altitude 10° 19:49:21 10° 230° (SW) 2,957 5.8 -25.7°
Sets 19:51:49 0° 232° (SW) 3,913 6.5 -26.1°
